sat.trackr.live / text

‹ back to catalog

COSMOS 2610

NORAD 68758 · 2026-083F

PAYLOAD ACTIVE UNKNOWN

§ Identity

Operator
Country
CIS
Launch date
2026-04-16
Launch site
PLMSC
Launch vehicle
Mass (kg)
RCS (m²)

External: N2YO · Heavens-Above · Gunter

§ Orbital elements

Epoch: 2026-05-24T22:58:04.572768Z

Period
95.59 min
Inclination
97.8020°
Eccentricity
0.0011802
Mean motion
15.06397209 rev/d
Perigee alt
539.0 km
Apogee alt
555.4 km
Semi-major
6,925.4 km
B*
1.0382e-4
RAAN
282.6194°
Arg perigee
128.4956°
Mean anomaly
231.7331°
Rev number
570

§ Raw data

COSMOS 26101 68758U 26083F   26144.95699737  .00001466  00000+0  10382-3 0  99982 68758  97.8020 282.6194 0011802 128.4956 231.7331 15.06397209  5705

JSON: /api/v1/satellites/68758 · /tle

For live sub-satellite position, see the globe view (requires WebGL).

§ Visibility from observer

Set your observer location to see the next 7 days of passes ≥ 10°. The values pass through the URL so the page stays shareable.

No JS? Fill the form by hand. The geolocation button needs JavaScript.